Regional Weather Roundup
Issued by NWS

Home | Current Version | Previous Version | Graphics & Text | Print | Product List | Glossary On
Versions: 1 2 3 4 5 6 7 8 9 10 11 12 13 14 15 16 17 18 19 20 21 22 23 24 25 26 27 28 29 30 31 32 33 34 35 36 37 38 39 40 41 42 43 44 45 46 47 48 49 50
000
ASUS43 KTOP 152359
RWRKS

WEATHER ROUNDUP FOR KANSAS
NATIONAL WEATHER SERVICE GOODLAND KS
700 PM CDT TUE APR 15 2014

NOTE:  "FAIR" INDICATES FEW OR NO CLOUDS BELOW 12,000 FEET WITH NO
SIGNIFICANT WEATHER AND/OR OBSTRUCTIONS TO VISIBILITY.

KSZ001>006-013>018-027>032-041>047-160100-
NORTHWEST KANSAS

CITY           SKY/WX    TMP DP  RH WIND       PRES   REMARKS
GOODLAND       PTSUNNY   63  18  17 S15G25    29.75F
6HR MIN TEMP:  60; 6HR MAX TEMP:  66;

HAYS           PTSUNNY   64  25  22 S21G28    29.83F
HILL CITY      CLOUDY    65  20  17 SW13G25   29.79F
6HR MIN TEMP:  60; 6HR MAX TEMP:  68;

RUSSELL        PTSUNNY   63  23  21 S21G30    29.83F
6HR MIN TEMP:  59; 6HR MAX TEMP:  66;

$$

KSZ061>065-074>080-084>089-160100-
SOUTHWEST KANSAS

CITY           SKY/WX    TMP DP  RH WIND       PRES   REMARKS
DODGE CITY     PTSUNNY   64  22  20 S15       29.85F
6HR MIN TEMP:  56; 6HR MAX TEMP:  66;

ELKHART          N/A     65  21  18 SW14        N/A
GARDEN CITY    PTSUNNY   64  20  18 S18       29.81F
6HR MIN TEMP:  57; 6HR MAX TEMP:  67;

GREAT BEND     CLOUDY    63  21  20 S22       29.85F
LIBERAL        MOSUNNY   70  21  16 SW22      29.84F
$$

KSZ066>073-081>083-090>101-160100-
SOUTHEAST KANSAS

CITY           SKY/WX    TMP DP  RH WIND       PRES   REMARKS
CHANUTE        PTSUNNY   56  27  32 S10       30.06F
6HR MIN TEMP:  50; 6HR MAX TEMP:  58;

COFFEYVILLE    PTSUNNY   57  27  31 S14       30.06F
6HR MIN TEMP:  54; 6HR MAX TEMP:  61;

HUTCHINSON     PTSUNNY   62  16  16 S21G28    29.93F
6HR MIN TEMP:  58; 6HR MAX TEMP:  65;

MEDICINE LODGE   N/A     66  18  15 S16G26    29.93F
NEWTON         PTSUNNY   57  18  21 S14G24    29.99F
PARSONS        PTSUNNY   58  24  27 S9        30.07F
6HR MIN TEMP:  54; 6HR MAX TEMP:  61;

WICHITA INTL   PTSUNNY   60  18  19 S16       29.97F
6HR MIN TEMP:  56; 6HR MAX TEMP:  63;

WICHITA JABRA  PTSUNNY   59  17  19 S17G23    29.98F
6HR MIN TEMP:  54; 6HR MAX TEMP:  63;

WINFIELD       PTSUNNY   60  17  18 S10       30.02F
6HR MIN TEMP:  57; 6HR MAX TEMP:  64;

$$

KSZ007>012-019>026-033>040-048>060-102>105-160100-
NORTHEAST KANSAS

CITY           SKY/WX    TMP DP  RH WIND       PRES   REMARKS
CONCORDIA      CLOUDY    60  19  20 S16       29.87F
6HR MIN TEMP:  54; 6HR MAX TEMP:  63;

EMPORIA        PTSUNNY   57  19  22 S16G23    29.99F
6HR MIN TEMP:  51; 6HR MAX TEMP:  60;

LAWRENCE       PTSUNNY   55  29  36 S14       30.03F
6HR MIN TEMP:  49; 6HR MAX TEMP:  58;

MANHATTAN      CLOUDY    60  20  21 S18G25    29.94F
6HR MIN TEMP:  53; 6HR MAX TEMP:  62;

OLATHE IND     PTSUNNY   51  28  41 S12       30.05F
6HR MIN TEMP:  46; 6HR MAX TEMP:  55;

OLATHE EXE     PTCLDY    51  27  39 S13       30.04F
6HR MIN TEMP:  46; 6HR MAX TEMP:  53;

SALINA         PTSUNNY   63  19  18 S18G28    29.91F
6HR MIN TEMP:  56; 6HR MAX TEMP:  66; 6HR PCP: TRACE;

TOPEKA BILLARD PTSUNNY   57  27  31 S14       30.00F
6HR MIN TEMP:  50; 6HR MAX TEMP:  59;

TOPEKA FORBES  PTSUNNY   55  27  34 SE14      29.99F
6HR MIN TEMP:  49; 6HR MAX TEMP:  58;

$$



USA.gov is the U.S. government's official web portal to all federal, state and local government web resources and services.